owner,sensor,date,latitude,longitude,vertical_datum,sea_water_practical_salinity,qcFlag 
DISL,ioos:station:DISL:DISL:1,2013-02-01T00:00:00Z,30.2513,-88.0778,1.8114264,11.21,1111122 
DISL,ioos:station:DISL:DISL:1,2013-02-01T00:30:00Z,30.2513,-88.0778,1.807769,10.89,1111122 
DISL,ioos:station:DISL:DISL:1,2013-02-01T01:00:00Z,30.2513,-88.0778,1.8123409,10.67,1111122 
DISL,ioos:station:DISL:DISL:1,2013-02-01T01:30:00Z,30.2513,-88.0778,1.8080736,10.47,1111122 
DISL,ioos:station:DISL:DISL:1,2013-02-01T02:00:00Z,30.2513,-88.0778,1.8208752,10.17,1111122 
DISL,ioos:station:DISL:DISL:1,2013-02-01T02:30:00Z,30.2513,-88.0778,1.827276,10.05,1111122 
DISL,ioos:station:DISL:DISL:1,2013-02-01T03:00:00Z,30.2513,-88.0778,1.8190464,9.91,1111122 
DISL,ioos:station:DISL:DISL:1,2013-02-01T03:30:00Z,30.2513,-88.0778,1.8126457,9.8,1111122 
DISL,ioos:station:DISL:DISL:1,2013-02-01T04:00:00Z,30.2513,-88.0778,1.819656,9.73,1111122 
DISL,ioos:station:DISL:DISL:1,2013-02-01T04:30:00Z,30.2513,-88.0778,1.8263617,9.64,1111122 
DISL,ioos:station:DISL:DISL:1,2013-02-01T05:00:00Z,30.2513,-88.0778,1.81356,9.49,1111122 
DISL,ioos:station:DISL:DISL:1,2013-02-01T05:30:00Z,30.2513,-88.0778,1.8105121,9.37,1111122 
DISL,ioos:station:DISL:DISL:1,2013-02-01T06:00:00Z,30.2513,-88.0778,1.7992344,9.17,1111122 
DISL,ioos:station:DISL:DISL:1,2013-02-01T06:30:00Z,30.2513,-88.0778,1.7931384,9.16,1111122 
DISL,ioos:station:DISL:DISL:1,2013-02-01T07:00:00Z,30.2513,-88.0778,1.7772888,9.2,1111122 
DISL,ioos:station:DISL:DISL:1,2013-02-01T07:30:00Z,30.2513,-88.0778,1.786128,9.07,1111122 
DISL,ioos:station:DISL:DISL:1,2013-02-01T08:00:00Z,30.2513,-88.0778,1.7821656,8.94,1111122 
DISL,ioos:station:DISL:DISL:1,2013-02-01T08:30:00Z,30.2513,-88.0778,1.7711928,8.92,1111122 
DISL,ioos:station:DISL:DISL:1,2013-02-01T09:00:00Z,30.2513,-88.0778,1.76022,8.93,1111122 
DISL,ioos:station:DISL:DISL:1,2013-02-01T09:30:00Z,30.2513,-88.0778,1.7620488,8.94,1111122 
DISL,ioos:station:DISL:DISL:1,2013-02-01T10:00:00Z,30.2513,-88.0778,1.7465041,8.92,1111122 
DISL,ioos:station:DISL:DISL:1,2013-02-01T10:30:00Z,30.2513,-88.0778,1.7425417,8.91,1111122 
DISL,ioos:station:DISL:DISL:1,2013-02-01T11:00:00Z,30.2513,-88.0778,1.7385793,8.94,1111122 
DISL,ioos:station:DISL:DISL:1,2013-02-01T11:30:00Z,30.2513,-88.0778,1.703832,8.81,1111122 
DISL,ioos:station:DISL:DISL:1,2013-02-01T12:00:00Z,30.2513,-88.0778,1.7324833,8.87,1111122 
DISL,ioos:station:DISL:DISL:1,2013-02-01T12:30:00Z,30.2513,-88.0778,1.7157192,8.95,1111122 
DISL,ioos:station:DISL:DISL:1,2013-02-01T13:00:00Z,30.2513,-88.0778,1.7333976,8.85,1111122 
DISL,ioos:station:DISL:DISL:1,2013-02-01T13:30:00Z,30.2513,-88.0778,1.7199864,8.92,1111122 
DISL,ioos:station:DISL:DISL:1,2013-02-01T14:00:00Z,30.2513,-88.0778,1.7105377,8.82,1111122 
DISL,ioos:station:DISL:DISL:1,2013-02-01T14:30:00Z,30.2513,-88.0778,1.69926,8.9,1111122 
DISL,ioos:station:DISL:DISL:1,2013-02-01T15:00:00Z,30.2513,-88.0778,1.7209008,7.43,1111122 
DISL,ioos:station:DISL:DISL:1,2013-02-01T15:30:00Z,30.2513,-88.0778,1.7431512,8.82,1111122 
DISL,ioos:station:DISL:DISL:1,2013-02-01T16:00:00Z,30.2513,-88.0778,1.735836,7.91,1111122 
DISL,ioos:station:DISL:DISL:1,2013-02-01T16:30:00Z,30.2513,-88.0778,1.7687544,5.71,1111122 
DISL,ioos:station:DISL:DISL:1,2013-02-01T17:00:00Z,30.2513,-88.0778,1.769364,5.03,1111122 
DISL,ioos:station:DISL:DISL:1,2013-02-01T17:30:00Z,30.2513,-88.0778,1.7157192,4.6,1111122 
DISL,ioos:station:DISL:DISL:1,2013-02-01T18:00:00Z,30.2513,-88.0778,1.7903953,4.09,1111122 
DISL,ioos:station:DISL:DISL:1,2013-02-01T18:30:00Z,30.2513,-88.0778,1.7971008,3.98,1111122 
DISL,ioos:station:DISL:DISL:1,2013-02-01T19:00:00Z,30.2513,-88.0778,1.7812512,3.95,1111122 
DISL,ioos:station:DISL:DISL:1,2013-02-01T19:30:00Z,30.2513,-88.0778,1.8260568,3.94,1111122 
DISL,ioos:station:DISL:DISL:1,2013-02-01T20:00:00Z,30.2513,-88.0778,1.7986249,4.94,1111122 
DISL,ioos:station:DISL:DISL:1,2013-02-01T20:30:00Z,30.2513,-88.0778,1.8184369,5.02,1111122 
DISL,ioos:station:DISL:DISL:1,2013-02-01T21:00:00Z,30.2513,-88.0778,1.8416016,5.03,1111122 
DISL,ioos:station:DISL:DISL:1,2013-02-01T21:30:00Z,30.2513,-88.0778,1.8190464,5.65,1111122 
DISL,ioos:station:DISL:DISL:1,2013-02-01T22:00:00Z,30.2513,-88.0778,1.8159984,6.74,1111122 
DISL,ioos:station:DISL:DISL:1,2013-02-01T22:30:00Z,30.2513,-88.0778,1.8202657,7.23,1111122 
DISL,ioos:station:DISL:DISL:1,2013-02-01T23:00:00Z,30.2513,-88.0778,1.8260568,7.37,1111122 
DISL,ioos:station:DISL:DISL:1,2013-02-01T23:30:00Z,30.2513,-88.0778,1.8132552,7.36,1111122 
DISL,ioos:station:DISL:DISL:1,2013-02-02T00:00:00Z,30.2513,-88.0778,1.801368,7.61,1111122 
DISL,ioos:station:DISL:DISL:1,2013-02-02T00:30:00Z,30.2513,-88.0778,1.7977103,7.63,1111122 
DISL,ioos:station:DISL:DISL:1,2013-02-02T01:00:00Z,30.2513,-88.0778,1.807769,6.08,1111122 
DISL,ioos:station:DISL:DISL:1,2013-02-02T01:30:00Z,30.2513,-88.0778,1.7916144,4.37,1111122 
DISL,ioos:station:DISL:DISL:1,2013-02-02T02:00:00Z,30.2513,-88.0778,1.8336768,3.69,1111122 
DISL,ioos:station:DISL:DISL:1,2013-02-02T02:30:00Z,30.2513,-88.0778,1.8004537,3.44,1111122 
DISL,ioos:station:DISL:DISL:1,2013-02-02T03:00:00Z,30.2513,-88.0778,1.808988,3.24,1111122 
DISL,ioos:station:DISL:DISL:1,2013-02-02T03:30:00Z,30.2513,-88.0778,1.7949672,3.13,1111122 
DISL,ioos:station:DISL:DISL:1,2013-02-02T04:00:00Z,30.2513,-88.0778,1.7846041,3.17,1111122 
DISL,ioos:station:DISL:DISL:1,2013-02-02T04:30:00Z,30.2513,-88.0778,1.7809464,3.17,1111122 
DISL,ioos:station:DISL:DISL:1,2013-02-02T05:00:00Z,30.2513,-88.0778,1.7791176,3.2,1111122 
DISL,ioos:station:DISL:DISL:1,2013-02-02T05:30:00Z,30.2513,-88.0778,1.766316,3.23,1111122 
DISL,ioos:station:DISL:DISL:1,2013-02-02T06:00:00Z,30.2513,-88.0778,1.7437608,3.27,1111122 
DISL,ioos:station:DISL:DISL:1,2013-02-02T06:30:00Z,30.2513,-88.0778,1.7532096,3.28,1111122 
DISL,ioos:station:DISL:DISL:1,2013-02-02T07:00:00Z,30.2513,-88.0778,1.7471136,3.29,1111122 
DISL,ioos:station:DISL:DISL:1,2013-02-02T07:30:00Z,30.2513,-88.0778,1.7519904,3.31,1111122 
DISL,ioos:station:DISL:DISL:1,2013-02-02T08:00:00Z,30.2513,-88.0778,1.7562577,3.34,1111122 
DISL,ioos:station:DISL:DISL:1,2013-02-02T08:30:00Z,30.2513,-88.0778,1.7529048,3.35,1111122 
DISL,ioos:station:DISL:DISL:1,2013-02-02T09:00:00Z,30.2513,-88.0778,1.7529048,3.36,1111122 
DISL,ioos:station:DISL:DISL:1,2013-02-02T09:30:00Z,30.2513,-88.0778,1.7416273,3.37,1111122 
DISL,ioos:station:DISL:DISL:1,2013-02-02T10:00:00Z,30.2513,-88.0778,1.7471136,3.38,1111122 
DISL,ioos:station:DISL:DISL:1,2013-02-02T10:30:00Z,30.2513,-88.0778,1.7446752,3.39,1111122 
DISL,ioos:station:DISL:DISL:1,2013-02-02T11:00:00Z,30.2513,-88.0778,1.7440656,3.41,1111122 
DISL,ioos:station:DISL:DISL:1,2013-02-02T11:30:00Z,30.2513,-88.0778,1.8193512,3.41,1111122 
DISL,ioos:station:DISL:DISL:1,2013-02-02T12:00:00Z,30.2513,-88.0778,1.7574768,3.45,1111122 
DISL,ioos:station:DISL:DISL:1,2013-02-02T12:30:00Z,30.2513,-88.0778,1.7718024,3.48,1111122 
DISL,ioos:station:DISL:DISL:1,2013-02-02T13:00:00Z,30.2513,-88.0778,1.7855184,3.5,1111122 
DISL,ioos:station:DISL:DISL:1,2013-02-02T13:30:00Z,30.2513,-88.0778,1.7903953,3.53,1111122 
DISL,ioos:station:DISL:DISL:1,2013-02-02T14:00:00Z,30.2513,-88.0778,1.7888712,3.57,1111122 
DISL,ioos:station:DISL:DISL:1,2013-02-02T14:30:00Z,30.2513,-88.0778,1.8080736,3.8,1111122 
DISL,ioos:station:DISL:DISL:1,2013-02-02T15:00:00Z,30.2513,-88.0778,1.8166081,5.37,1111122 
DISL,ioos:station:DISL:DISL:1,2013-02-02T15:30:00Z,30.2513,-88.0778,1.8208752,6.63,1111122 
DISL,ioos:station:DISL:DISL:1,2013-02-02T16:00:00Z,30.2513,-88.0778,1.8443449,8.64,1111122 
DISL,ioos:station:DISL:DISL:1,2013-02-02T16:30:00Z,30.2513,-88.0778,1.8544033,17.4,1111122 
DISL,ioos:station:DISL:DISL:1,2013-02-02T17:00:00Z,30.2513,-88.0778,1.8681192,23.77,1111122 
DISL,ioos:station:DISL:DISL:1,2013-02-02T17:30:00Z,30.2513,-88.0778,1.894332,22.59,1111122 
DISL,ioos:station:DISL:DISL:1,2013-02-02T18:00:00Z,30.2513,-88.0778,1.9098767,22.43,1111122 
DISL,ioos:station:DISL:DISL:1,2013-02-02T18:30:00Z,30.2513,-88.0778,1.9327369,21.18,1111122 
DISL,ioos:station:DISL:DISL:1,2013-02-02T19:00:00Z,30.2513,-88.0778,1.9601688,20.17,1111122 
DISL,ioos:station:DISL:DISL:1,2013-02-02T19:30:00Z,30.2513,-88.0778,1.9860767,21.55,1111122 
DISL,ioos:station:DISL:DISL:1,2013-02-02T20:00:00Z,30.2513,-88.0778,2.0189953,22.2,1111122 
DISL,ioos:station:DISL:DISL:1,2013-02-02T20:30:00Z,30.2513,-88.0778,2.0394168,20.99,1111122 
DISL,ioos:station:DISL:DISL:1,2013-02-02T21:00:00Z,30.2513,-88.0778,2.0500848,20.3,1111122 
DISL,ioos:station:DISL:DISL:1,2013-02-02T21:30:00Z,30.2513,-88.0778,2.0598383,18.9,1111122 
DISL,ioos:station:DISL:DISL:1,2013-02-02T22:00:00Z,30.2513,-88.0778,2.0625818,16.72,1111122 
DISL,ioos:station:DISL:DISL:1,2013-02-02T22:30:00Z,30.2513,-88.0778,2.0644104,9.54,1111122 
DISL,ioos:station:DISL:DISL:1,2013-02-02T23:00:00Z,30.2513,-88.0778,2.0622768,6.42,1111122 
DISL,ioos:station:DISL:DISL:1,2013-02-02T23:30:00Z,30.2513,-88.0778,2.0586193,9.27,1111122 
DISL,ioos:station:DISL:DISL:1,2013-02-03T00:00:00Z,30.2513,-88.0778,2.0388072,7.48,1111122 
DISL,ioos:station:DISL:DISL:1,2013-02-03T00:30:00Z,30.2513,-88.0778,2.0189953,5.91,1111122 
DISL,ioos:station:DISL:DISL:1,2013-02-03T01:00:00Z,30.2513,-88.0778,1.9970497,5.36,1111122 
DISL,ioos:station:DISL:DISL:1,2013-02-03T01:30:00Z,30.2513,-88.0778,1.984248,5.11,1111122 
DISL,ioos:station:DISL:DISL:1,2013-02-03T02:00:00Z,30.2513,-88.0778,1.9659599,3.64,1111122 
DISL,ioos:station:DISL:DISL:1,2013-02-03T02:30:00Z,30.2513,-88.0778,1.9510249,3.31,1111122 
DISL,ioos:station:DISL:DISL:1,2013-02-03T03:00:00Z,30.2513,-88.0778,1.9306033,3.34,1111122 
DISL,ioos:station:DISL:DISL:1,2013-02-03T03:30:00Z,30.2513,-88.0778,1.8995136,3.59,1111122 
DISL,ioos:station:DISL:DISL:1,2013-02-03T04:00:00Z,30.2513,-88.0778,1.872996,3.77,1111122 
DISL,ioos:station:DISL:DISL:1,2013-02-03T04:30:00Z,30.2513,-88.0778,1.8534888,4.01,1111122 
DISL,ioos:station:DISL:DISL:1,2013-02-03T05:00:00Z,30.2513,-88.0778,1.8263617,4.06,1111122 
DISL,ioos:station:DISL:DISL:1,2013-02-03T05:30:00Z,30.2513,-88.0778,1.8083785,3.99,1111122 
DISL,ioos:station:DISL:DISL:1,2013-02-03T06:00:00Z,30.2513,-88.0778,1.8041112,3.79,1111122 
DISL,ioos:station:DISL:DISL:1,2013-02-03T06:30:00Z,30.2513,-88.0778,1.7669256,3.66,1111122 
DISL,ioos:station:DISL:DISL:1,2013-02-03T07:00:00Z,30.2513,-88.0778,1.751076,3.57,1111122 
DISL,ioos:station:DISL:DISL:1,2013-02-03T07:30:00Z,30.2513,-88.0778,1.7397984,3.6,1111122 
DISL,ioos:station:DISL:DISL:1,2013-02-03T08:00:00Z,30.2513,-88.0778,1.7489424,3.49,1111122 
DISL,ioos:station:DISL:DISL:1,2013-02-03T08:30:00Z,30.2513,-88.0778,1.7498568,3.47,1111122 
DISL,ioos:station:DISL:DISL:1,2013-02-03T09:00:00Z,30.2513,-88.0778,1.7471136,3.54,1111122 
DISL,ioos:station:DISL:DISL:1,2013-02-03T09:30:00Z,30.2513,-88.0778,1.726692,3.54,1111122 
DISL,ioos:station:DISL:DISL:1,2013-02-03T10:00:00Z,30.2513,-88.0778,1.7215103,3.35,1111122 
DISL,ioos:station:DISL:DISL:1,2013-02-03T10:30:00Z,30.2513,-88.0778,1.7404081,3.45,1111122 
DISL,ioos:station:DISL:DISL:1,2013-02-03T11:00:00Z,30.2513,-88.0778,1.7248632,3.41,1111122 
DISL,ioos:station:DISL:DISL:1,2013-02-03T11:30:00Z,30.2513,-88.0778,1.7199864,3.37,1111122 
DISL,ioos:station:DISL:DISL:1,2013-02-03T12:00:00Z,30.2513,-88.0778,1.7178528,3.4,1111122 
DISL,ioos:station:DISL:DISL:1,2013-02-03T12:30:00Z,30.2513,-88.0778,1.726692,3.5,1111122 
DISL,ioos:station:DISL:DISL:1,2013-02-03T13:00:00Z,30.2513,-88.0778,1.7446752,3.47,1111122 
DISL,ioos:station:DISL:DISL:1,2013-02-03T13:30:00Z,30.2513,-88.0778,1.7650968,3.63,1111122 
DISL,ioos:station:DISL:DISL:1,2013-02-03T14:00:00Z,30.2513,-88.0778,1.7833848,3.68,1111122 
DISL,ioos:station:DISL:DISL:1,2013-02-03T14:30:00Z,30.2513,-88.0778,1.7763745,3.74,1111122 
DISL,ioos:station:DISL:DISL:1,2013-02-03T15:00:00Z,30.2513,-88.0778,1.7974056,4.9,1111122 
DISL,ioos:station:DISL:DISL:1,2013-02-03T15:30:00Z,30.2513,-88.0778,1.8071592,6.47,1111122 
DISL,ioos:station:DISL:DISL:1,2013-02-03T16:00:00Z,30.2513,-88.0778,1.8254472,6.23,1111122 
DISL,ioos:station:DISL:DISL:1,2013-02-03T16:30:00Z,30.2513,-88.0778,1.8507457,5.53,1111122 
DISL,ioos:station:DISL:DISL:1,2013-02-03T17:00:00Z,30.2513,-88.0778,1.8748249,6.19,1111122 
DISL,ioos:station:DISL:DISL:1,2013-02-03T17:30:00Z,30.2513,-88.0778,1.7949672,11.04,1111122 
DISL,ioos:station:DISL:DISL:1,2013-02-03T18:00:00Z,30.2513,-88.0778,1.9196304,15.62,1111122 
DISL,ioos:station:DISL:DISL:1,2013-02-03T18:30:00Z,30.2513,-88.0778,1.9318224,14.32,1111122 
DISL,ioos:station:DISL:DISL:1,2013-02-03T19:00:00Z,30.2513,-88.0778,1.9790665,16.85,1111122 
DISL,ioos:station:DISL:DISL:1,2013-02-03T19:30:00Z,30.2513,-88.0778,2.0004025,17.69,1111122 
DISL,ioos:station:DISL:DISL:1,2013-02-03T20:00:00Z,30.2513,-88.0778,2.020824,18.37,1111122 
DISL,ioos:station:DISL:DISL:1,2013-02-03T20:30:00Z,30.2513,-88.0778,2.0275297,19.42,1111122 
DISL,ioos:station:DISL:DISL:1,2013-02-03T21:00:00Z,30.2513,-88.0778,2.0506945,16.57,1111122 
DISL,ioos:station:DISL:DISL:1,2013-02-03T21:30:00Z,30.2513,-88.0778,2.0595336,12.54,1111122 
DISL,ioos:station:DISL:DISL:1,2013-02-03T22:00:00Z,30.2513,-88.0778,2.0574,13.1,1111122 
DISL,ioos:station:DISL:DISL:1,2013-02-03T22:30:00Z,30.2513,-88.0778,2.0729449,7.9,1111122 
DISL,ioos:station:DISL:DISL:1,2013-02-03T23:00:00Z,30.2513,-88.0778,2.089404,5.68,1111122 
DISL,ioos:station:DISL:DISL:1,2013-02-03T23:30:00Z,30.2513,-88.0778,2.0759928,5.73,1111122 
DISL,ioos:station:DISL:DISL:1,2013-02-04T00:00:00Z,30.2513,-88.0778,2.066239,4.94,1111122 
DISL,ioos:station:DISL:DISL:1,2013-02-04T00:30:00Z,30.2513,-88.0778,2.0479512,4.67,1111122 
DISL,ioos:station:DISL:DISL:1,2013-02-04T01:00:00Z,30.2513,-88.0778,2.0363688,4.52,1111122 
DISL,ioos:station:DISL:DISL:1,2013-02-04T01:30:00Z,30.2513,-88.0778,2.0128992,4.57,1111122 
DISL,ioos:station:DISL:DISL:1,2013-02-04T02:00:00Z,30.2513,-88.0778,1.9863816,4.48,1111122 
DISL,ioos:station:DISL:DISL:1,2013-02-04T02:30:00Z,30.2513,-88.0778,1.9543777,4.58,1111122 
DISL,ioos:station:DISL:DISL:1,2013-02-04T03:00:00Z,30.2513,-88.0778,1.9235928,4.63,1111122 
DISL,ioos:station:DISL:DISL:1,2013-02-04T03:30:00Z,30.2513,-88.0778,1.9235928,4.65,1111122 
DISL,ioos:station:DISL:DISL:1,2013-02-04T04:00:00Z,30.2513,-88.0778,1.88976,4.97,1111122 
DISL,ioos:station:DISL:DISL:1,2013-02-04T04:30:00Z,30.2513,-88.0778,1.8568417,5.24,1111122 
DISL,ioos:station:DISL:DISL:1,2013-02-04T05:00:00Z,30.2513,-88.0778,1.8199608,5.42,1111122 
DISL,ioos:station:DISL:DISL:1,2013-02-04T05:30:00Z,30.2513,-88.0778,1.8105121,5.52,1111122 
DISL,ioos:station:DISL:DISL:1,2013-02-04T06:00:00Z,30.2513,-88.0778,1.7742409,5.34,1111122 
DISL,ioos:station:DISL:DISL:1,2013-02-04T06:30:00Z,30.2513,-88.0778,1.7742409,5.12,1111122 
DISL,ioos:station:DISL:DISL:1,2013-02-04T07:00:00Z,30.2513,-88.0778,1.7687544,4.55,1111122 
DISL,ioos:station:DISL:DISL:1,2013-02-04T07:30:00Z,30.2513,-88.0778,1.7465041,3.9,1111122 
DISL,ioos:station:DISL:DISL:1,2013-02-04T08:00:00Z,30.2513,-88.0778,1.732788,3.58,1111122 
DISL,ioos:station:DISL:DISL:1,2013-02-04T08:30:00Z,30.2513,-88.0778,1.716024,3.44,1111122 
DISL,ioos:station:DISL:DISL:1,2013-02-04T09:00:00Z,30.2513,-88.0778,1.7148048,3.23,1111122 
DISL,ioos:station:DISL:DISL:1,2013-02-04T09:30:00Z,30.2513,-88.0778,1.7010888,3.19,1111122 
DISL,ioos:station:DISL:DISL:1,2013-02-04T10:00:00Z,30.2513,-88.0778,1.7010888,3.18,1111122 
DISL,ioos:station:DISL:DISL:1,2013-02-04T10:30:00Z,30.2513,-88.0778,1.6989552,3.19,1111122 
DISL,ioos:station:DISL:DISL:1,2013-02-04T11:00:00Z,30.2513,-88.0778,1.7123665,3.21,1111122 
DISL,ioos:station:DISL:DISL:1,2013-02-04T11:30:00Z,30.2513,-88.0778,1.7105377,3.4,1111122 
DISL,ioos:station:DISL:DISL:1,2013-02-04T12:00:00Z,30.2513,-88.0778,1.7303497,3.25,1111122 
DISL,ioos:station:DISL:DISL:1,2013-02-04T12:30:00Z,30.2513,-88.0778,1.7263873,3.24,1111122 
DISL,ioos:station:DISL:DISL:1,2013-02-04T13:00:00Z,30.2513,-88.0778,1.7577816,3.32,1111122 
DISL,ioos:station:DISL:DISL:1,2013-02-04T13:30:00Z,30.2513,-88.0778,1.7562577,4.67,1111122 
DISL,ioos:station:DISL:DISL:1,2013-02-04T14:00:00Z,30.2513,-88.0778,1.7705833,5.66,1111122 
DISL,ioos:station:DISL:DISL:1,2013-02-04T14:30:00Z,30.2513,-88.0778,1.7931384,5.24,1111122 
DISL,ioos:station:DISL:DISL:1,2013-02-04T15:00:00Z,30.2513,-88.0778,1.8092928,5.27,1111122 
DISL,ioos:station:DISL:DISL:1,2013-02-04T15:30:00Z,30.2513,-88.0778,1.8815304,6.63,1111122 
DISL,ioos:station:DISL:DISL:1,2013-02-04T16:00:00Z,30.2513,-88.0778,1.883969,6.51,1111122 
DISL,ioos:station:DISL:DISL:1,2013-02-04T16:30:00Z,30.2513,-88.0778,1.9104865,13.35,1111122 
DISL,ioos:station:DISL:DISL:1,2013-02-04T17:00:00Z,30.2513,-88.0778,1.876044,20.59,1111122 
DISL,ioos:station:DISL:DISL:1,2013-02-04T17:30:00Z,30.2513,-88.0778,1.9342608,20.89,1111122 
DISL,ioos:station:DISL:DISL:1,2013-02-04T18:00:00Z,30.2513,-88.0778,1.979676,20.78,1111122 
DISL,ioos:station:DISL:DISL:1,2013-02-04T18:30:00Z,30.2513,-88.0778,2.0004025,21.19,1111122 
DISL,ioos:station:DISL:DISL:1,2013-02-04T19:00:00Z,30.2513,-88.0778,2.0260055,22.74,1111122 
DISL,ioos:station:DISL:DISL:1,2013-02-04T19:30:00Z,30.2513,-88.0778,2.0555713,24.35,1111122 
DISL,ioos:station:DISL:DISL:1,2013-02-04T20:00:00Z,30.2513,-88.0778,2.0689824,25.3,1111122 
DISL,ioos:station:DISL:DISL:1,2013-02-04T20:30:00Z,30.2513,-88.0778,2.0964143,22.45,1111122 
DISL,ioos:station:DISL:DISL:1,2013-02-04T21:00:00Z,30.2513,-88.0778,2.1128738,24.85,1111122 
DISL,ioos:station:DISL:DISL:1,2013-02-04T21:30:00Z,30.2513,-88.0778,2.142744,25.23,1111122 
DISL,ioos:station:DISL:DISL:1,2013-02-04T22:00:00Z,30.2513,-88.0778,2.1488402,21.93,1111122 
DISL,ioos:station:DISL:DISL:1,2013-02-04T22:30:00Z,30.2513,-88.0778,2.188464,9.11,1111122 
DISL,ioos:station:DISL:DISL:1,2013-02-04T23:00:00Z,30.2513,-88.0778,2.188464,9.02,1111122 
DISL,ioos:station:DISL:DISL:1,2013-02-04T23:30:00Z,30.2513,-88.0778,2.173224,11.83,1111122 
DISL,ioos:station:DISL:DISL:1,2013-02-05T00:00:00Z,30.2513,-88.0778,2.167128,8.95,1111122 
DISL,ioos:station:DISL:DISL:1,2013-02-05T00:30:00Z,30.2513,-88.0778,2.197608,7.32,1111122 
DISL,ioos:station:DISL:DISL:1,2013-02-05T01:00:00Z,30.2513,-88.0778,2.16408,6.5,1111122 
DISL,ioos:station:DISL:DISL:1,2013-02-05T01:30:00Z,30.2513,-88.0778,2.154936,5.28,1111122 
DISL,ioos:station:DISL:DISL:1,2013-02-05T02:00:00Z,30.2513,-88.0778,2.1238463,6.31,1111122 
DISL,ioos:station:DISL:DISL:1,2013-02-05T02:30:00Z,30.2513,-88.0778,2.1037297,4.84,1111122 
DISL,ioos:station:DISL:DISL:1,2013-02-05T03:00:00Z,30.2513,-88.0778,2.0750785,5.17,1111122 
DISL,ioos:station:DISL:DISL:1,2013-02-05T03:30:00Z,30.2513,-88.0778,2.0644104,3.88,1111122 
DISL,ioos:station:DISL:DISL:1,2013-02-05T04:00:00Z,30.2513,-88.0778,2.0308824,3.71,1111122 
DISL,ioos:station:DISL:DISL:1,2013-02-05T04:30:00Z,30.2513,-88.0778,1.9961351,3.69,1111122 
DISL,ioos:station:DISL:DISL:1,2013-02-05T05:00:00Z,30.2513,-88.0778,1.9988785,3.82,1111122 
DISL,ioos:station:DISL:DISL:1,2013-02-05T05:30:00Z,30.2513,-88.0778,1.9525489,3.97,1111122 
DISL,ioos:station:DISL:DISL:1,2013-02-05T06:00:00Z,30.2513,-88.0778,1.9196304,4.02,1111122 
DISL,ioos:station:DISL:DISL:1,2013-02-05T06:30:00Z,30.2513,-88.0778,1.9107913,4.11,1111122 
DISL,ioos:station:DISL:DISL:1,2013-02-05T07:00:00Z,30.2513,-88.0778,1.8879311,4.15,1111122 
DISL,ioos:station:DISL:DISL:1,2013-02-05T07:30:00Z,30.2513,-88.0778,1.8757392,4.29,1111122 
DISL,ioos:station:DISL:DISL:1,2013-02-05T08:00:00Z,30.2513,-88.0778,1.830324,4.27,1111122 
DISL,ioos:station:DISL:DISL:1,2013-02-05T08:30:00Z,30.2513,-88.0778,1.8166081,4.22,1111122 
DISL,ioos:station:DISL:DISL:1,2013-02-05T09:00:00Z,30.2513,-88.0778,1.8025873,4.12,1111122 
DISL,ioos:station:DISL:DISL:1,2013-02-05T09:30:00Z,30.2513,-88.0778,1.8025873,4.12,1111122 
DISL,ioos:station:DISL:DISL:1,2013-02-05T10:00:00Z,30.2513,-88.0778,1.8019776,3.76,1111122 
DISL,ioos:station:DISL:DISL:1,2013-02-05T10:30:00Z,30.2513,-88.0778,1.8257519,3.56,1111122 
DISL,ioos:station:DISL:DISL:1,2013-02-05T11:00:00Z,30.2513,-88.0778,1.8288,3.39,1111122 
DISL,ioos:station:DISL:DISL:1,2013-02-05T11:30:00Z,30.2513,-88.0778,1.8065497,3.18,1111122 
DISL,ioos:station:DISL:DISL:1,2013-02-05T12:00:00Z,30.2513,-88.0778,1.7961864,3.14,1111122 
DISL,ioos:station:DISL:DISL:1,2013-02-05T12:30:00Z,30.2513,-88.0778,1.8400776,3.25,1111122 
DISL,ioos:station:DISL:DISL:1,2013-02-05T13:00:00Z,30.2513,-88.0778,1.8403825,3.28,1111122 
DISL,ioos:station:DISL:DISL:1,2013-02-05T13:30:00Z,30.2513,-88.0778,1.8245329,3.34,1111122 
DISL,ioos:station:DISL:DISL:1,2013-02-05T14:00:00Z,30.2513,-88.0778,1.8422112,4.05,1111122 
DISL,ioos:station:DISL:DISL:1,2013-02-05T14:30:00Z,30.2513,-88.0778,1.868424,4.56,1111122 
DISL,ioos:station:DISL:DISL:1,2013-02-05T15:00:00Z,30.2513,-88.0778,1.8888457,4.79,1111122 
DISL,ioos:station:DISL:DISL:1,2013-02-05T15:30:00Z,30.2513,-88.0778,1.8934176,4.75,1111122 
DISL,ioos:station:DISL:DISL:1,2013-02-05T16:00:00Z,30.2513,-88.0778,1.9147537,6.66,1111122 
DISL,ioos:station:DISL:DISL:1,2013-02-05T16:30:00Z,30.2513,-88.0778,1.9165825,7.1,1111122 
DISL,ioos:station:DISL:DISL:1,2013-02-05T17:00:00Z,30.2513,-88.0778,1.9741896,6.94,1111122 
DISL,ioos:station:DISL:DISL:1,2013-02-05T17:30:00Z,30.2513,-88.0778,1.979676,8.18,1111122 
DISL,ioos:station:DISL:DISL:1,2013-02-05T18:00:00Z,30.2513,-88.0778,2.0007071,14.26,1111122 
DISL,ioos:station:DISL:DISL:1,2013-02-05T18:30:00Z,30.2513,-88.0778,2.0339303,20.01,1111122 
DISL,ioos:station:DISL:DISL:1,2013-02-05T19:00:00Z,30.2513,-88.0778,2.0372832,22.16,1111122 
DISL,ioos:station:DISL:DISL:1,2013-02-05T19:30:00Z,30.2513,-88.0778,2.083613,22.19,1111122 
DISL,ioos:station:DISL:DISL:1,2013-02-05T20:00:00Z,30.2513,-88.0778,2.176272,23.99,1111122 
DISL,ioos:station:DISL:DISL:1,2013-02-05T20:30:00Z,30.2513,-88.0778,2.157984,24.67,1111122 
DISL,ioos:station:DISL:DISL:1,2013-02-05T21:00:00Z,30.2513,-88.0778,2.151888,24.88,1111122 
DISL,ioos:station:DISL:DISL:1,2013-02-05T21:30:00Z,30.2513,-88.0778,2.2098,25.2,1111122 
DISL,ioos:station:DISL:DISL:1,2013-02-05T22:00:00Z,30.2513,-88.0778,2.246376,24.66,1111122 
DISL,ioos:station:DISL:DISL:1,2013-02-05T22:30:00Z,30.2513,-88.0778,2.0890992,25.34,1111122 
DISL,ioos:station:DISL:DISL:1,2013-02-05T23:00:00Z,30.2513,-88.0778,2.295144,25.89,1111122 
DISL,ioos:station:DISL:DISL:1,2013-02-05T23:30:00Z,30.2513,-88.0778,2.31648,20.39,1111122 
DISL,ioos:station:DISL:DISL:1,2013-02-06T00:00:00Z,30.2513,-88.0778,2.313432,18.07,1111122 
DISL,ioos:station:DISL:DISL:1,2013-02-06T00:30:00Z,30.2513,-88.0778,2.304288,16.64,1111122 
DISL,ioos:station:DISL:DISL:1,2013-02-06T01:00:00Z,30.2513,-88.0778,2.304288,13.94,1111122 
DISL,ioos:station:DISL:DISL:1,2013-02-06T01:30:00Z,30.2513,-88.0778,2.276856,12.31,1111122 
DISL,ioos:station:DISL:DISL:1,2013-02-06T02:00:00Z,30.2513,-88.0778,2.267712,6.1,1111122 
DISL,ioos:station:DISL:DISL:1,2013-02-06T02:30:00Z,30.2513,-88.0778,2.307336,5.83,1111122 
DISL,ioos:station:DISL:DISL:1,2013-02-06T03:00:00Z,30.2513,-88.0778,2.237232,6.52,1111122 
DISL,ioos:station:DISL:DISL:1,2013-02-06T03:30:00Z,30.2513,-88.0778,2.203704,6.18,1111122 
DISL,ioos:station:DISL:DISL:1,2013-02-06T04:00:00Z,30.2513,-88.0778,2.170176,8.97,1111122 
DISL,ioos:station:DISL:DISL:1,2013-02-06T04:30:00Z,30.2513,-88.0778,2.124456,6.02,1111122 
DISL,ioos:station:DISL:DISL:1,2013-02-06T05:00:00Z,30.2513,-88.0778,2.1073873,5.23,1111122 
DISL,ioos:station:DISL:DISL:1,2013-02-06T05:30:00Z,30.2513,-88.0778,2.0494752,4.64,1111122 
DISL,ioos:station:DISL:DISL:1,2013-02-06T06:00:00Z,30.2513,-88.0778,2.0372832,3.8,1111122 
DISL,ioos:station:DISL:DISL:1,2013-02-06T06:30:00Z,30.2513,-88.0778,2.01168,3.83,1111122 
DISL,ioos:station:DISL:DISL:1,2013-02-06T07:00:00Z,30.2513,-88.0778,1.985772,3.82,1111122 
DISL,ioos:station:DISL:DISL:1,2013-02-06T07:30:00Z,30.2513,-88.0778,1.9763232,3.78,1111122 
DISL,ioos:station:DISL:DISL:1,2013-02-06T08:00:00Z,30.2513,-88.0778,1.9443192,4.02,1111122 
DISL,ioos:station:DISL:DISL:1,2013-02-06T08:30:00Z,30.2513,-88.0778,1.9299935,4.17,1111122 
DISL,ioos:station:DISL:DISL:1,2013-02-06T09:00:00Z,30.2513,-88.0778,1.9077432,4.07,1111122 
DISL,ioos:station:DISL:DISL:1,2013-02-06T09:30:00Z,30.2513,-88.0778,1.8867121,4.06,1111122 